Weather History for Billings, MT

Change the Weather History Date:

Friday, December 7, 2012

  Actual Average Record
Temperature  
Mean Temperature 32 °F 27 °F  
Max Temperature 38 °F 36 °F 60 °F (1939)
Min Temperature 26 °F 19 °F -21 °F (2013)
Degree Days  
Heating Degree Days 33 38  
Month to date heating degree days 153 257  
Since 1 July heating degree days 1535 1885  
Cooling Degree Days 0 0  
Month to date cooling degree days 0 0  
Year to date cooling degree days 958 636  
Moisture  
Dew Point 24 °F    
Average Humidity 74    
Maximum Humidity 100    
Minimum Humidity 48    
Precipitation  
Precipitation T in 0.01 in 0.45 in (1958)
Month to date precipitation 0.05 0.12  
Year to date precipitation 6.91 13.28  
Snow  
Snow T in 0.30 in 4.60 in (1958)
Month to date snowfall 0.5 1.8  
Since 1 July snowfall 12.1 13.5  
Snow Depth T in    
Sea Level Pressure  
Sea Level Pressure 29.88 in    
Wind  
Wind Speed 13 mph (WSW)    
Max Wind Speed 23 mph    
Max Gust Speed 30 mph    
Visibility 9 miles    
Events Fog    
T = Trace of Precipitation, MM = Missing Value Source: NWS Daily Summary

Daily Weather History Graph

Daily Weather History Graph

Search for Another Location

Airport:

Trip Planner

Search our weather history database for the weather conditions in past years. The results will help you decide how hot, cold, wet, or windy it might be!

Date:

Astronomy

Dec. 07, 2012 Rise Set
Actual Time 7:42 AM MST 4:29 PM MST
Civil Twilight 7:07 AM MST 5:03 PM MST
Nautical Twilight 6:30 AM MST 5:41 PM MST
Astronomical Twilight 5:54 AM MST 6:17 PM MST
Moon 12:47 AM MST (12/7) 12:44 PM MST (12/7)
Length of Visible Light 9h 55m
Length of Day
8h 47m
Last Quarter, 38% of the Moon is Illuminated
Dec 7
Last Quarter
Dec 13
New
Dec 19
First Quarter
Dec 28
Full
Jan 4
Last Quarter

Hourly Weather History & Observations

Time (MST) Temp. Windchill Dew Point Humidity Pressure Visibility Wind Dir Wind Speed Gust Speed Precip Events Conditions
12:53 AM 30.0 °F 20.5 °F 28.9 °F 96% 29.96 in 3.0 mi WSW 11.5 mph - 0.00 in   Overcast
1:53 AM 28.9 °F 18.6 °F 28.0 °F 96% 29.96 in 10.0 mi WSW 12.7 mph - N/A   Scattered Clouds
2:53 AM 28.9 °F 19.2 °F 28.0 °F 96% 29.96 in 10.0 mi WSW 11.5 mph - N/A   Partly Cloudy
3:28 AM 28.4 °F 19.1 °F 26.6 °F 93% 29.88 in 10.0 mi WSW 10.4 mph - N/A Fog Partly Cloudy
3:53 AM 28.0 °F 18.6 °F 27.0 °F 96% 29.95 in 10.0 mi SW 10.4 mph - N/A Fog Scattered Clouds
4:15 AM 26.6 °F 16.8 °F 26.6 °F 100% 29.86 in 1.0 mi SW 10.4 mph - N/A   Overcast
4:20 AM 26.6 °F 17.5 °F 26.6 °F 100% 29.86 in 0.5 mi SW 9.2 mph - N/A Fog Light Freezing Fog
4:41 AM 26.6 °F 17.5 °F 26.6 °F 100% 29.85 in 1.5 mi SW 9.2 mph - N/A   Mostly Cloudy
4:53 AM 27.0 °F 17.3 °F 26.1 °F 96% 29.94 in 3.0 mi WSW 10.4 mph - N/A   Mostly Cloudy
5:02 AM 28.4 °F 18.5 °F 26.6 °F 93% 29.85 in 10.0 mi WSW 11.5 mph - N/A Fog Scattered Clouds
5:53 AM 27.0 °F 16.7 °F 26.1 °F 96% 29.94 in 10.0 mi SW 11.5 mph - N/A Fog Scattered Clouds
6:53 AM 27.0 °F 13.9 °F 25.0 °F 92% 29.96 in 10.0 mi WSW 18.4 mph - N/A   Mostly Cloudy
7:53 AM 27.0 °F 16.1 °F 24.1 °F 89% 29.96 in 10.0 mi WSW 12.7 mph - N/A   Mostly Cloudy
8:53 AM 27.0 °F 14.3 °F 24.1 °F 89% 29.98 in 10.0 mi WSW 17.3 mph - N/A   Mostly Cloudy
9:53 AM 28.0 °F 17.0 °F 25.0 °F 88% 29.97 in 10.0 mi SW 13.8 mph - N/A   Mostly Cloudy
10:53 AM 30.0 °F 18.7 °F 25.0 °F 82% 29.96 in 10.0 mi WSW 16.1 mph - N/A   Scattered Clouds
11:53 AM 32.0 °F 21.2 °F 25.0 °F 75% 29.95 in 10.0 mi WSW 16.1 mph - N/A   Scattered Clouds
12:53 PM 35.1 °F 26.4 °F 26.1 °F 70% 29.93 in 10.0 mi SW 12.7 mph - N/A   Partly Cloudy
1:53 PM 37.0 °F 26.7 °F 23.0 °F 57% 29.90 in 10.0 mi West 19.6 mph 28.8 mph N/A   Partly Cloudy
2:53 PM 37.0 °F 26.4 °F 19.9 °F 50% 29.90 in 10.0 mi West 20.7 mph 26.5 mph N/A   Partly Cloudy
3:53 PM 35.1 °F 26.4 °F 19.9 °F 54% 29.91 in 10.0 mi WSW 12.7 mph - N/A   Scattered Clouds
4:53 PM 35.1 °F 28.6 °F 21.0 °F 57% 29.90 in 10.0 mi WSW 8.1 mph - N/A   Mostly Cloudy
5:53 PM 33.8 °F 28.6 °F 21.2 °F 60% 29.78 in 10.0 mi SW 5.8 mph - N/A   Mostly Cloudy
6:53 PM 30.9 °F 24.3 °F 23.0 °F 72% 29.85 in 10.0 mi SW 6.9 mph - N/A   Partly Cloudy
7:53 PM 30.9 °F 24.3 °F 21.9 °F 69% 29.81 in 10.0 mi SW 6.9 mph - N/A   Partly Cloudy
8:53 PM 30.9 °F 22.2 °F 19.9 °F 64% 29.78 in 10.0 mi WSW 10.4 mph - N/A   Mostly Cloudy
9:53 PM 30.9 °F 21.2 °F 19.0 °F 61% 29.73 in 10.0 mi WSW 12.7 mph - N/A   Mostly Cloudy
10:53 PM 32.0 °F 22.1 °F 19.0 °F 59% 29.70 in 10.0 mi WSW 13.8 mph - N/A   Mostly Cloudy
11:53 PM 33.1 °F 23.0 °F 19.9 °F 59% 29.67 in 10.0 mi WSW 15.0 mph - N/A   Scattered Clouds